{"data":{"norad_id":69102,"intl_designator":"2026-106F","name":"LIJIAN-1 R/B","alt_names":[],"object_type":"ROCKET_BODY","status":"UNKNOWN","operator":null,"country":"PRC","launch_date":"2026-05-15","launch_site_code":"JSC","launch_vehicle":null,"mission":null,"orbit_class":"UNKNOWN","rcs_meters":null,"size_class":null,"mass_kg":null,"dimensions":null,"purposes":[],"wikipedia_slug":null,"has_3d_model":false,"image_url":null,"decayed_at":null,"tle_current":{"epoch":"2026-06-13T22:59:02.375232Z","epoch_age_seconds":8537335,"freshness":"OLD","line1":"1 69102U 26106F   26164.95766638  .00044340  27417-5  37216-3 0  9995","line2":"2 69102  97.5047 248.9754 0172047 266.1469  92.0099 15.53221147  4617","mean_motion":15.53221147,"eccentricity":0.0172047,"inclination_deg":97.5047,"raan_deg":248.9754,"arg_perigee_deg":266.1469,"mean_anomaly_deg":92.0099,"bstar":0.00037216,"rev_number":461,"period_min":92.710558492029,"perigee_km":290.58657215876,"apogee_km":524.07036769974,"semimajor_km":6785.4654699293,"source":"CELESTRAK","updated_at":"2026-06-14T09:00:45.173029Z"}}}